TimeMDT,TemperatureF,Dew PointF,Humidity,Sea Level PressureIn,VisibilityMPH,Wind Direction,Wind SpeedMPH,Gust SpeedMPH,PrecipitationIn,Events,Conditions,WindDirDegrees,DateUTC
12:53 AM,59.0,36.0,42,29.46,10.0,Calm,Calm,-,N/A,,Clear,0,2013-04-30 06:53:00
1:53 AM,55.9,35.1,45,29.49,10.0,North,9.2,-,N/A,,Clear,350,2013-04-30 07:53:00
2:53 AM,57.9,34.0,41,29.48,10.0,West,6.9,-,N/A,,Clear,270,2013-04-30 08:53:00
3:53 AM,57.0,32.0,39,29.50,10.0,North,12.7,-,N/A,,Clear,350,2013-04-30 09:53:00
4:53 AM,48.0,37.0,66,29.60,10.0,North,23.0,32.2,N/A,,Clear,10,2013-04-30 10:53:00
5:53 AM,46.0,37.0,71,29.64,10.0,North,27.6,33.4,N/A,,Clear,10,2013-04-30 11:53:00
6:53 AM,46.9,37.0,68,29.70,10.0,North,25.3,29.9,N/A,,Clear,10,2013-04-30 12:53:00
7:53 AM,46.9,36.0,66,29.74,10.0,North,17.3,26.5,N/A,,Clear,10,2013-04-30 13:53:00
8:53 AM,50.0,35.1,57,29.75,10.0,NE,17.3,25.3,N/A,,Clear,40,2013-04-30 14:53:00
9:53 AM,55.9,35.1,45,29.75,10.0,NE,21.9,26.5,N/A,,Clear,50,2013-04-30 15:53:00
10:53 AM,60.1,35.1,39,29.74,10.0,NE,18.4,24.2,N/A,,Clear,50,2013-04-30 16:53:00
11:53 AM,64.0,34.0,33,29.73,10.0,ENE,15.0,20.7,N/A,,Clear,70,2013-04-30 17:53:00
12:53 PM,66.0,34.0,30,29.73,10.0,NE,10.4,18.4,N/A,,Clear,50,2013-04-30 18:53:00
1:53 PM,66.9,34.0,30,29.73,10.0,NE,11.5,17.3,N/A,,Clear,40,2013-04-30 19:53:00
2:53 PM,66.9,34.0,30,29.71,10.0,ENE,12.7,26.5,N/A,,Clear,70,2013-04-30 20:53:00
3:53 PM,66.9,32.0,27,29.74,10.0,ENE,15.0,20.7,N/A,,Clear,70,2013-04-30 21:53:00
4:53 PM,66.9,30.9,26,29.75,10.0,ENE,18.4,-,N/A,,Clear,70,2013-04-30 22:53:00
5:53 PM,62.6,28.4,27,29.79,10.0,ENE,21.9,26.5,N/A,,Clear,60,2013-04-30 23:53:00
6:53 PM,61.0,27.0,27,29.80,10.0,ENE,18.4,-,N/A,,Clear,60,2013-05-01 00:53:00
7:53 PM,57.9,25.0,28,29.83,10.0,NE,15.0,-,N/A,,Clear,50,2013-05-01 01:53:00
8:53 PM,55.9,23.0,28,29.84,10.0,NE,19.6,26.5,N/A,,Partly Cloudy,50,2013-05-01 02:53:00
9:53 PM,48.9,28.9,46,29.91,10.0,NE,28.8,36.8,N/A,,Overcast,40,2013-05-01 03:53:00
10:53 PM,45.0,33.1,63,29.95,9.0,NNE,21.9,34.5,0.00,Rain-Thunderstorm,Light Thunderstorms and Rain,30,2013-05-01 04:53:00
11:11 PM,44.6,35.6,71,29.98,10.0,NNE,18.4,31.1,0.00,,Overcast,30,2013-05-01 05:11:00
11:53 PM,42.1,36.0,79,29.99,10.0,NNE,24.2,31.1,0.00,,Overcast,20,2013-05-01 05:53:00